Meath Environmental Platform

Observations for Trim Patrick St

Time AQI Temp °C Hum % Pres Pa CO μg/m³ H₂S μg/m³ NO μg/m³ NO₂ μg/m³ O₃ μg/m³ SO₂ μg/m³ PM1 μg/m³ PM2.5 μg/m³ PM10 μg/m³
Saturday 8 August 2026
13:38 2 29.5 34 69,167 0 0 1.03 10.99 72.82 11.38 3.71 9 9.9
13:37 2 29.5 34 69,169 0 0 1.08 10.88 72.98 11.35 2 7.44 8.19
13:36 2 29.5 35 69,177 0 0 1.01 7.69 70.24 12.02 3.71 9.74 10.72
13:35 2 29.5 34 69,191 0 0 1.02 11.13 76.08 11.89 2 8.19 9.01
13:32 2 29.4 35 69,189 0 0 1.01 9.68 68.05 11.97 2.86 8.16 8.98
13:31 2 29.3 35 69,177 0 0 1.01 9.01 63.86 11.26 2 7.33 8.07
13:30 2 29.3 35 69,153 0 0 1.1 10.68 57.4 11.25 2 8.16 8.98
13:29 2 29.2 36 69,151 0 0 1.06 10.42 72.32 11.42 2 7.3 8.03
13:28 2 29.1 36 69,149 0 0 1.08 11.57 84.97 11.64 2 8.07 8.88
13:23 2 28.9 37 69,143 0 0 1.08 10.25 72.46 11.35 2 7.26 7.98
13:22 2 28.9 37 69,139 0 0 1.05 11.21 80.52 10.98 2 7.23 7.95
13:21 2 28.9 38 69,141 0 0 1.04 10 87.57 12.39 2 7.19 7.91
13:20 2 28.8 37 69,141 0 0 1.11 12.18 88.45 10.94 2.86 8.02 8.83
13:19 2 28.8 37 69,139 0 0 1.06 10.37 74.63 12.19 2.86 8.02 8.82
13:18 2 28.7 38 69,139 0 2.11 1.09 12.7 95.1 11.77 2 7.98 8.78
13:17 2 28.7 37 69,141 0 0 1.11 12.87 78.61 10.11 2 8 8.81
13:16 2 28.7 38 69,139 0 0 1.07 9.99 88.78 11.5 2 7.96 8.75
13:15 2 28.6 38 69,138 0 0 1.11 9.95 88.28 12.21 2 7.99 8.78
13:14 2 28.6 38 69,139 0 0 1.1 9.95 86.95 11.04 2 7.2 7.92
13:13 2 28.6 38 69,139 0 0 0.99 10.13 72.14 11.59 2.86 8.77 9.65